Wind_Speed
22 21 19 17 16 16 14 13 13 12 14 15 16 15 15 12 10 9 8 9 9 8 10 8 9 11 12 12 13 12 13 14 14 14 14 13 12 12 12 12 11 11
22 21 19 18 17 15 14 13 11 11 15 18 18 17 16 13 10 9 8 9 8 9 11 10 10 13 15 15 15 13 13 14 14 14 14 14 13 15 15 15 13 13
21 21 20 19 19 16 15 15 12 13 17 18 18 16 13 11 10 10 10 11 11 11 11 10 10 13 15 15 14 12 12 13 14 14 15 14 14 14 16 17 18 17
19 20 19 19 20 18 16 16 14 15 18 17 15 13 12 12 13 14 14 14 13 12 11 11 11 12 14 14 14 13 13 13 14 15 15 14 13 14 15 15 17 19
18 19 18 18 19 19 17 16 15 16 17 16 13 12 14 16 16 16 16 15 14 12 12 12 11 12 13 13 13 14 15 15 14 15 15 16 16 15 15 15 16 17
18 18 18 19 19 18 17 16 15 16 16 15 14 15 16 17 16 16 16 15 14 13 13 14 13 12 12 13 15 15 15 15 15 14 16 18 17 16 15 16 17 16
18 18 17 19 19 16 16 16 14 15 16 15 16 17 17 17 16 16 15 15 15 13 14 15 13 13 13 14 16 16 15 16 16 17 18 19 18 17 16 16 16 16
13 18 19 18 17 16 15 16 15 16 16 16 17 17 17 17 16 16 15 15 15 14 15 14 13 14 14 14 16 16 16 17 17 19 20 20 18 17 16 16 17 17
7 16 21 18 16 17 16 16 16 16 15 16 17 17 17 18 16 15 15 15 15 15 14 14 15 14 13 15 15 14 16 17 18 18 19 19 19 18 17 17 18 17
3 11 18 18 18 17 16 16 16 16 15 16 17 16 16 18 16 14 15 16 16 15 15 15 15 13 15 16 14 12 16 19 18 17 18 19 19 18 17 16 17 16
7 13 14 15 16 15 15 15 15 16 15 15 16 16 15 17 16 14 15 16 16 16 16 16 14 14 17 17 13 12 17 19 18 16 17 18 17 15 15 15 15 15
12 17 16 14 14 13 14 15 15 16 16 15 15 15 14 15 16 15 15 16 16 16 17 16 15 15 17 17 15 14 15 17 18 17 15 15 16 14 13 12 11 11
15 17 18 16 14 12 12 14 14 14 15 15 14 14 14 14 15 15 15 15 15 17 17 15 15 16 16 16 16 15 15 17 17 16 14 14 15 14 12 11 10 9
15 14 14 16 12 8 9 14 15 14 14 15 14 14 14 13 14 14 15 15 14 15 17 16 15 16 16 16 16 16 16 16 16 15 14 13 13 12 11 11 10 9
13 11 12 14 11 6 6 11 14 14 15 14 13 15 15 13 13 13 13 14 14 14 16 18 17 16 16 16 15 15 15 14 14 14 13 12 12 12 13 13 13 12
12 10 9 8 8 7 7 10 11 12 15 14 11 13 15 15 13 12 13 14 13 12 14 17 19 17 16 17 15 14 15 14 13 13 13 12 13 14 14 15 16 14
9 7 6 6 8 9 10 11 11 11 15 15 11 9 12 13 12 11 12 14 14 12 10 13 18 18 17 17 16 15 15 15 15 14 13 14 15 16 16 16 17 16
11 10 6 6 6 7 11 12 11 11 12 13 13 10 9 10 10 9 10 12 15 15 12 11 14 16 17 17 17 18 17 16 16 16 16 16 16 17 17 17 16 16
12 11 9 11 10 9 11 10 9 9 9 9 10 10 9 9 9 10 9 9 12 16 16 14 12 13 15 15 16 17 16 15 16 17 17 18 18 17 18 18 17 16
18 15 11 8 6 6 7 5 3 4 5 7 8 8 9 11 11 12 12 10 10 13 15 16 15 14 16 16 16 17 16 15 15 16 17 18 18 19 18 18 18 18
25 24 23 18 14 11 7 4 2 4 4 5 6 8 10 11 12 14 15 14 13 13 12 13 15 16 16 17 18 19 19 17 16 15 16 17 17 17 17 17 18 18
23 22 22 22 22 20 17 15 10 3 3 5 7 9 9 10 11 12 13 14 15 17 16 15 15 16 17 18 19 20 21 21 21 20 18 17 17 16 15 15 16 18
20 20 21 21 21 20 18 17 17 12 7 8 10 10 10 10 10 10 10 13 15 18 19 18 18 18 20 22 23 23 22 22 23 23 21 19 17 15 14 14 14 16
17 18 18 18 18 18 16 15 16 15 13 12 11 11 12 13 12 12 12 13 16 18 19 19 19 20 22 24 24 25 24 23 22 22 21 20 18 15 14 15 15 18
16 16 16 17 16 16 15 15 15 15 15 14 14 13 14 14 13 14 16 17 19 20 21 20 21 22 23 23 24 24 24 24 23 22 20 20 18 15 15 16 18 19
15 16 16 17 17 17 16 16 15 16 17 18 18 18 18 18 16 15 17 20 22 23 23 23 23 24 23 23 23 24 23 23 23 23 22 19 17 16 17 17 17 18
Wind_Direction
159 157 156 154 153 155 158 160 161 165 163 157 150 148 152 149 151 154 138 136 145 151 152 124 98 128 143 136 131 125 125 128 127 131 133 132 137 141 138 136 139 143
161 158 156 154 156 159 162 159 160 165 160 155 152 149 151 153 158 161 151 144 141 143 151 134 110 122 134 136 135 132 133 134 134 136 134 124 123 129 126 123 130 141
161 158 157 158 159 157 154 152 149 155 154 151 152 152 153 156 160 156 148 142 136 137 145 141 128 125 129 135 138 139 140 137 137 139 132 118 114 121 120 114 116 122
162 162 161 162 162 156 150 146 143 149 152 151 150 150 148 148 149 147 143 143 143 144 148 147 141 135 134 138 139 139 139 134 136 138 128 115 114 120 121 117 112 112
166 167 168 165 162 160 155 147 143 147 150 149 147 144 145 147 149 150 149 150 149 149 149 147 145 144 144 147 147 143 138 135 137 137 125 114 115 121 122 121 116 113
170 172 174 167 162 161 159 150 146 149 151 148 145 146 150 151 152 153 153 153 153 153 153 150 149 150 151 152 150 145 142 142 144 141 129 117 117 122 123 121 117 113
176 177 174 166 162 163 159 155 154 154 154 150 149 153 157 155 155 155 156 157 157 158 156 154 155 155 152 149 147 148 150 150 148 142 133 126 125 127 126 124 120 115
180 175 169 163 161 161 159 158 162 161 157 155 156 159 162 160 159 158 159 160 159 159 159 158 158 157 158 156 153 155 156 152 149 146 140 135 136 136 133 130 130 126
205 172 163 162 161 161 163 162 163 163 160 162 163 163 167 168 163 161 163 164 160 159 160 160 161 162 163 162 159 163 164 159 155 155 151 146 143 143 142 139 137 135
239 161 154 161 166 165 167 165 164 163 164 167 167 168 174 173 166 164 168 167 163 162 161 161 164 165 163 163 161 162 163 161 157 155 153 149 145 146 150 151 148 146
147 153 152 164 171 170 169 168 168 168 167 171 171 172 177 173 166 169 173 171 168 167 165 164 166 166 165 166 161 152 157 160 156 151 151 155 155 154 157 159 158 157
149 165 170 172 173 173 174 174 175 174 173 175 174 174 177 173 168 172 177 177 175 171 169 169 170 169 167 167 164 158 161 163 159 154 154 158 162 161 162 164 163 161
163 182 180 175 179 181 183 184 179 177 177 177 177 176 178 176 173 177 180 181 181 179 178 176 174 175 173 173 173 172 169 167 166 163 159 157 158 159 162 163 161 164
179 201 187 177 181 179 185 189 183 179 182 183 182 181 184 183 180 183 185 187 189 189 187 184 179 181 185 184 182 181 180 178 175 171 165 162 160 159 161 160 162 176
179 209 196 184 185 166 157 179 182 183 188 189 186 184 187 188 187 190 194 194 195 196 196 193 187 187 192 195 191 188 189 187 183 180 174 170 168 169 170 170 174 181
165 192 189 178 188 182 171 182 190 194 195 194 187 183 186 189 192 199 204 206 205 204 204 200 196 194 195 197 199 199 199 194 190 188 182 178 178 178 179 182 186 189
124 139 146 160 185 197 200 202 207 210 207 205 201 189 183 188 196 201 204 210 215 219 219 206 201 201 199 200 205 208 208 205 200 196 191 191 191 188 190 192 190 192
106 106 128 167 181 203 212 211 212 214 213 213 218 218 205 198 202 203 203 209 217 227 233 217 206 204 203 204 208 210 212 210 206 202 199 197 197 197 201 202 196 199
110 122 149 167 168 182 193 192 197 204 206 212 223 234 236 228 221 219 220 218 218 224 230 229 225 221 218 217 215 211 212 212 208 206 203 202 203 204 207 211 213 219
57 62 73 109 137 167 183 182 194 211 221 224 225 238 246 244 241 239 241 242 229 222 224 225 228 235 237 236 232 227 222 218 214 212 210 208 206 204 209 218 224 228
35 35 34 34 33 33 30 13 278 233 249 254 253 264 265 260 256 249 248 251 249 241 236 231 228 233 240 242 241 240 235 231 231 226 219 215 214 214 218 223 227 230
24 24 22 17 16 20 22 20 12 344 283 287 291 289 281 274 270 260 253 257 259 255 252 251 244 239 242 245 246 246 243 241 244 241 233 227 224 224 224 223 225 230
15 15 11 5 3 5 7 8 9 9 357 330 314 306 297 291 292 289 276 267 266 263 258 257 256 251 248 248 249 252 252 250 247 245 242 235 227 223 221 222 229 239
6 3 0 356 355 356 354 350 350 353 354 348 335 320 310 303 297 297 293 281 273 269 263 260 259 255 252 252 251 253 256 257 254 249 245 239 232 224 220 225 237 247
359 356 353 351 349 347 345 340 334 331 330 330 328 321 314 304 285 270 268 268 266 263 260 258 257 254 253 254 255 256 258 259 257 251 244 239 236 230 228 235 241 241
349 349 346 347 347 344 341 336 330 324 319 314 312 310 309 306 296 281 269 265 259 254 254 255 254 254 254 255 257 260 260 259 255 249 243 240 237 233 232 232 231 229
Height
802 803 806 808 811 812 814 815 816 817 818 819 820 822 824 825 827 828 829 830 831 832 834 835 836 836 837 839 840 840 840 840 840 840 841 842 842 842 842 842 842 843
801 803 806 808 810 812 814 815 816 817 818 819 820 821 823 825 827 828 829 830 831 832 834 836 836 837 838 839 841 841 842 841 841 842 842 843 843 843 843 843 844 844
803 804 806 807 809 811 813 815 816 817 818 819 820 821 823 825 827 828 829 830 831 833 834 836 837 838 838 840 841 842 843 843 843 843 843 844 844 844 845 845 845 846
804 806 807 808 809 811 813 814 816 818 819 820 821 822 823 825 827 828 829 830 832 833 835 836 837 838 839 840 841 843 844 844 844 844 844 845 845 845 845 846 847 848
804 806 808 809 810 811 813 815 817 818 819 820 821 822 824 825 827 828 829 831 832 833 835 836 837 838 839 840 841 843 844 844 845 845 845 845 846 846 847 847 848 848
804 807 808 810 811 813 814 816 818 818 819 821 822 823 825 826 827 828 829 831 832 833 835 836 838 838 839 840 841 843 844 844 845 845 846 846 846 847 848 848 848 849
805 808 810 811 813 815 816 817 819 819 820 821 822 823 825 826 827 828 830 831 832 833 835 836 838 839 840 841 842 843 844 844 845 845 846 846 847 848 848 848 849 849
808 809 811 813 814 816 817 818 819 820 820 821 822 824 825 826 828 829 830 831 832 834 835 837 838 839 840 842 842 844 844 844 845 845 846 846 847 848 849 849 850 850
814 813 812 814 816 817 819 819 820 820 821 822 823 824 825 826 828 829 830 831 832 834 835 837 838 840 841 842 843 844 845 845 845 845 846 846 847 848 849 850 850 851
818 817 815 816 817 818 819 820 820 821 822 823 823 824 825 827 828 829 830 832 833 834 835 837 838 840 841 842 843 845 845 846 846 846 846 847 847 848 849 850 850 851
817 819 818 819 818 819 820 820 821 821 822 822 823 824 825 827 828 829 830 831 833 834 835 836 838 839 841 842 843 845 846 846 847 847 847 847 848 848 849 849 850 851
816 818 818 819 820 820 821 821 821 822 822 823 824 824 825 827 828 829 830 831 832 833 835 836 837 839 840 842 843 844 845 846 847 847 848 848 848 849 849 850 850 851
816 817 817 818 820 821 821 822 822 822 823 824 824 825 826 826 827 828 829 830 832 833 834 836 837 839 840 841 843 844 845 846 846 847 847 848 848 849 849 850 850 851
815 818 818 818 820 821 822 823 823 823 824 824 825 825 826 826 827 828 829 830 831 832 833 835 836 838 840 841 842 843 845 845 845 846 846 847 848 848 849 849 850 850
816 819 818 817 819 821 822 823 824 824 824 824 824 824 825 826 827 828 828 829 830 831 833 834 835 837 839 840 842 843 844 844 845 845 846 846 847 847 847 848 848 848
817 818 817 818 819 820 821 822 823 824 824 824 824 824 825 825 826 827 828 829 830 831 832 833 834 835 837 839 841 842 843 844 844 845 845 845 845 844 845 846 846 847
815 816 818 820 819 819 819 820 822 824 824 824 824 824 825 825 825 827 827 828 829 830 832 832 833 834 836 837 839 840 841 842 842 843 844 844 843 843 844 844 845 846
814 815 819 821 821 820 821 823 825 825 824 823 824 824 825 825 825 826 827 828 829 830 831 832 833 834 835 836 837 837 839 839 840 841 841 841 841 841 842 842 843 844
817 819 821 823 823 823 825 825 826 824 822 823 824 823 824 824 825 826 826 827 828 829 830 831 832 833 834 834 835 835 837 837 838 839 839 838 838 839 839 839 840 841
818 820 821 823 822 823 823 822 822 822 821 822 822 823 823 823 824 825 826 827 828 828 829 830 831 832 832 832 833 833 834 835 836 836 836 836 836 836 836 837 837 838
817 817 819 821 821 822 822 821 821 821 821 821 821 822 822 822 823 824 824 826 827 827 828 829 829 830 830 830 831 831 832 832 833 834 834 834 833 833 834 835 836 836
817 817 818 819 820 820 820 821 822 821 822 822 821 821 821 821 822 823 824 824 825 826 826 827 827 828 828 828 828 828 829 830 830 831 831 831 831 831 831 833 833 833
820 819 820 820 820 820 820 821 822 822 823 823 822 822 821 821 821 821 822 822 823 824 824 824 825 825 825 825 825 825 826 826 827 827 828 828 828 829 829 830 830 831
822 822 822 821 821 821 821 821 821 822 823 823 823 822 821 820 820 819 819 819 820 821 821 822 822 823 823 823 823 823 823 823 824 824 824 825 826 826 827 827 827 827
825 824 824 823 823 822 822 821 821 821 821 822 822 822 822 821 821 821 820 819 819 820 820 820 820 820 820 820 820 820 820 820 820 821 821 822 823 823 824 824 824 824
826 825 825 824 824 823 823 823 822 821 821 821 821 820 820 820 820 821 820 819 819 818 818 818 818 817 817 818 817 817 817 817 817 817 817 819 820 820 820 820 821 821